Location: Caltech
(34.1382°N, 118.1253°W)
Time: 04:23:02
(UTC-07:00)

JAS-1B - Visible Passes

Search period start: 29 April 2017 00:00
Search period end: 09 May 2017 00:00
Orbit: 911 x 1744 km, 99.0° (Epoch: 27 April)

Date Brightness Start Highest point End Pass type
(mag) Time Alt. Az. Time Alt. Az. Time Alt. Az.
29 Apr 9.2 01:59:29 13° ESE 02:05:24 28° ENE 02:11:30 10° NNE visible
29 Apr 7.8 03:51:44 35° SSW 03:55:36 58° WSW 04:03:08 10° NNW visible
30 Apr 8.8 02:18:53 19° ESE 02:24:17 37° ENE 02:30:59 10° N visible
30 Apr 8.1 04:11:09 30° SW 04:14:39 42° W 04:21:51 10° NNW visible
01 May 8.3 02:38:17 25° SE 02:43:14 50° ENE 02:50:17 10° N visible
01 May 8.4 04:30:33 24° SW 04:33:44 31° W 04:40:19 10° NW visible
02 May 10.0 01:11:25 10° ENE 01:12:33 10° ENE 01:13:39 10° NE visible
02 May 7.9 02:57:42 31° SSE 03:02:12 68° ENE 03:09:27 10° N visible
02 May 8.8 04:49:57 18° WSW 04:52:50 22° W 04:58:28 10° NW visible
03 May 9.8 01:27:02 10° E 01:31:15 15° ENE 01:35:10 10° NNE visible
03 May 7.6 03:17:06 35° SSE 03:21:11 89° E 03:28:30 10° NNW visible
03 May 9.1 05:09:22 13° WSW 05:12:01 14° W 05:15:57 10° WNW visible
04 May 9.4 01:44:17 10° ESE 01:50:02 22° ENE 01:55:11 10° NNE visible
04 May 7.6 03:36:30 37° S 03:40:13 68° WSW 03:47:26 10° NNW visible
05 May 9.0 02:03:39 15° ESE 02:08:54 30° ENE 02:14:49 10° NNE visible
05 May 7.8 03:55:55 34° SSW 03:59:14 50° W 04:06:13 10° NNW visible
06 May 8.6 02:23:03 21° SE 02:27:49 40° ENE 02:34:14 10° N visible
06 May 8.1 04:15:19 28° SW 04:18:17 36° W 04:24:49 10° NW visible
07 May 8.1 02:42:28 28° SE 02:46:46 55° ENE 02:53:29 10° N visible
07 May 8.5 04:34:43 21° SW 04:37:21 25° W 04:43:08 10° NW visible
08 May 9.9 01:14:14 10° ENE 01:15:54 11° ENE 01:17:31 10° NE visible
08 May 7.6 03:01:52 34° SSE 03:05:45 75° ENE 03:12:37 10° N visible
08 May 8.9 04:54:07 15° WSW 04:56:28 17° W 05:01:00 10° WNW visible
